Location: Dound� Koussem
(15.0875°N, 12.9003°W)
Time: 15:19:22
(UTC+00:00)

Daily predictions for brighter satellites

Satellite Brightness Start Highest point End
(mag) Time Altitude Azimuth Time Altitude Azimuth Time Altitude Azimuth
Cosmos 1455 2.2 19:00:39 10° N 19:04:29 77° E 19:08:19 10° S
Delta 2 Rocket 2.7 19:03:59 10° SW 19:07:17 85° SE 19:10:45 10° ENE
USA 267 3.7 19:03:02 10° NE 19:09:13 45° SE 19:15:23 10° SSW
Cosmos 158 Rocket 4.1 19:06:55 10° N 19:12:13 59° ENE 19:17:28 10° SSE
USA 276 2.6 19:10:10 10° SW 19:13:18 58° NW 19:16:27 10° NNE
Feng Yun 1-1 Rocket 4.2 19:09:46 10° SSE 19:15:02 58° ENE 19:20:23 10° N
Cosmos 489 Rocket 4.5 19:10:31 10° N 19:16:48 73° ENE 19:23:02 10° SSE
Lacrosse 5 2.4 19:13:42 10° N 19:18:18 35° NE 19:22:53 10° ESE
ARIANE 5 R/B 3.4 19:17:24 10° SSW 19:18:23 12° S 19:19:20 10° SSE
SAR-Lupe-4 3.8 19:15:05 10° N 19:18:38 73° WNW 19:22:10 10° SSW
Fermi 4.2 19:16:34 10° SW 19:20:31 50° SSE 19:24:05 12° E
Skynet4D Del rocket 4.0 19:16:07 10° WSW 19:22:51 76° NNW 19:28:16 12° ENE
CZ-2C R/B 3.2 19:20:10 10° NNE 19:25:24 40° E 19:30:36 10° S
CZ-4 R/B 1.9 19:22:37 10° SE 19:26:24 36° ENE 19:30:08 10° N
SWARM A 4.5 19:28:38 10° SSE 19:31:49 45° E 19:34:59 10° NNE
BREEZE-M DEB (TANK) 2.9 19:29:14 10° SW 19:34:33 48° NW 19:36:50 11° NNE
Iridium 4 Rocket 3.2 19:30:47 10° N 19:35:44 73° E 19:40:15 10° S
Cosmos 405 3.3 19:34:28 10° NNE 19:37:45 39° E 19:41:02 10° SSE
Aureole 3 Rocket 3.3 19:34:21 10° N 19:38:20 58° E 19:43:49 10° SSE
Cosmos 2292 Rocket 4.3 19:33:11 10° S 19:40:01 66° E 19:45:08 10° NNE
Cosmos 2150 Rocket 3.9 19:37:47 10° S 19:42:54 82° ESE 19:48:03 10° NNE
Centaur D-1AR AC-48 3.2 19:31:05 10° W 19:44:08 50° NNW 19:46:59 20° NE
In-Cosmos 22 Rocket 4.3 19:39:24 10° S 19:45:05 56° E 19:50:44 10° NNE
DMSP B5D2-2 4.4 19:42:22 10° NNE 19:47:21 43° E 19:52:19 10° S
ARIANE 44L R/B 4.5 19:44:05 10° WSW 19:47:48 44° SSE 20:02:01 13° E
Cosmos 1833 Rocket 3.9 19:45:27 10° NNE 19:48:31 20° NE 19:48:31 20° NE
GPS 2-04 Rocket1 4.2 19:50:02 10° S 19:52:18 17° SE 19:52:33 17° SE
EPKM 4.5 19:25:33 10° WNW 19:54:25 53° N 19:58:08 25° ENE
Cosmos 1943 Rocket 2.7 19:51:27 10° SSE 19:56:24 35° ESE 19:58:10 28° ENE
GPS 2-12 Rocket1 2.9 19:54:03 10° WNW 19:58:34 90° NE 20:00:32 33° ESE
COSMOS 2406 3.8 19:53:50 10° N 19:58:55 32° ENE 20:03:57 10° SE
Cosmos 1680 Rocket 3.9 19:54:37 10° NNW 19:59:46 64° WSW 20:04:53 10° S
Cosmos 2266 Rocket 4.0 19:55:14 10° S 20:01:29 63° E 20:07:38 10° NNE
H-2A R/B 1.8 19:56:51 10° SSE 20:01:47 83° ENE 20:06:48 10° N
Cosmos 2369 Rocket 3.6 20:01:17 10° SSE 20:04:22 20° ESE 20:04:22 20° ESE
Cosmos-2242 2.9 20:03:10 10° N 20:07:29 89° WNW 20:11:50 10° S
Cosmos 1809 Rocket 4.3 20:02:15 10° S 20:08:20 86° E 20:14:27 10° N
Cosmos 1441 Rocket 4.0 20:04:50 10° SSE 20:07:36 36° SE 20:07:36 36° SE
OAO 3 Rocket 3.7 20:03:48 10° WSW 20:08:37 53° NNW 20:10:36 32° NNE
Lacrosse 5 rocket 1.9 20:04:41 10° SSW 20:09:05 45° ESE 20:09:32 43° ESE
YAOGAN 1 3.0 20:05:51 10° S 20:10:07 64° WSW 20:14:24 10° NNW
CSL-04 Rocket 3.6 20:05:03 10° SSE 20:10:16 57° ENE 20:15:34 10° N
ATLAS 5 CENTAUR R/B 1.8 20:08:57 10° SW 20:09:39 20° SW 20:09:39 20° SW
Meteor 2-15 4.4 20:05:11 10° N 20:11:20 86° W 20:17:27 10° S
NATO 3D Rocket 4.3 20:08:58 10° SW 20:13:08 31° SSE 20:14:05 28° SE
Cosmos 1125 Rocket 3.8 20:08:13 10° SSW 20:13:21 66° WNW 20:18:15 12° N
SWIFT 3.7 20:13:58 10° W 20:17:50 34° SSW 20:19:28 25° SSE
Cosmos 1892 3.4 20:14:27 10° SSW 20:18:05 51° W 20:20:34 19° NNW
Hubble Space Telescope 1.7 20:16:20 10° NW 20:19:25 35° N 20:19:25 35° N
CZ-3A R/B 3.4 20:15:24 10° SW 20:20:58 43° SSE 20:23:47 33° ESE
Okean-O 4.0 20:21:29 10° S 20:25:36 38° W 20:29:42 10° NNW
Helios 1A Rocket 3.7 20:22:59 10° S 20:26:59 51° WSW 20:31:01 10° NNW
Cosmos 1417 Rocket 4.4 20:21:40 10° N 20:27:57 89° E 20:34:18 10° S
Cosmos 1553 Rocket 4.2 20:25:09 10° N 20:31:26 71° W 20:37:37 10° S
Meteor 2-16 Rocket 4.3 20:28:22 10° S 20:34:29 72° E 20:35:53 53° NNE
Cosmos 1408 3.9 20:32:49 10° SSW 20:36:08 38° W 20:36:08 38° W
Milstar 3 3.5 20:28:24 10° W 20:37:44 48° NNW 20:39:53 38° NNE
ARGOS 3.6 20:33:27 10° S 20:38:42 59° WSW 20:43:58 10° NNW
NOSS 3-1 (C) 4.2 20:31:39 10° NNW 20:40:14 87° ENE 20:49:20 10° SSE
Delta 198 4.4 20:35:49 10° WSW 20:42:43 87° SSE 20:43:31 72° ENE
Ariane H10+ 3.3 20:32:45 10° W 20:42:48 35° SSW 20:44:16 30° SSE
S3M 4.3 20:50:40 10° NNW 20:56:41 63° W 21:02:46 10° S
Mugunghwa Rocket 4.1 20:51:12 10° WNW 20:59:02 83° SSW 20:59:21 80° SSE
ATLAS 3B CENTAUR R/B 3.6 20:55:21 10° W 20:57:35 21° W 20:57:35 21° W
USA 229 DEB 3.8 20:52:26 10° NNW 21:00:08 85° ENE 21:00:58 74° SE
USA 229 3.8 20:52:32 10° NNW 21:00:14 84° ENE 21:00:45 78° SE
NOSS 3-3 (A) 4.5 20:55:50 10° SSW 20:59:23 43° SSW 20:59:23 43° SSW
ARIANE 5 R/B 3.7 21:03:26 10° WSW 21:11:34 29° SSW 21:11:34 29° SSW
NOSS 3-1 (A) 4.2 21:07:41 10° NNW 21:16:17 88° WSW 21:16:36 85° S
